Location: Altavilla Irpina
(41.0000°N, 14.7833°E)
Time: 01:24:41
(UTC+00:00)

Cosmos 783 Rocket - Pass Details

Date: 19 May 2025
Orbit: 753 x 777 km, 74.1° (Epoch: 23 June)

Event Time Altitude Azimuth Distance (km) Brightness Sun altitude
Exits shadow 21:06:59 63° 118° (ESE) 842 4.4 -23.9°
Maximum altitude 21:07:10 64° 106° (ESE) 839 4.4 -23.9°
Drops below altitude 10° 21:12:18 10° 26° (NNE) 2,296 7.4 -24.3°
Sets 21:14:42 0° 23° (NNE) 3,229 8.3 -24.5°
